{"data":{"norad_id":39210,"intl_designator":"2013-037C","name":"SHIJIAN-15 (SJ-15)","alt_names":[],"object_type":"PAYLOAD","status":"ACTIVE","operator":null,"country":"PRC","launch_date":"2013-07-19","launch_site_code":"TAISC","launch_vehicle":null,"mission":null,"orbit_class":"UNKNOWN","rcs_meters":3.3272,"size_class":null,"mass_kg":null,"dimensions":null,"purposes":[],"wikipedia_slug":null,"has_3d_model":false,"image_url":null,"decayed_at":null,"tle_current":{"epoch":"2026-05-25T05:55:15.258432Z","epoch_age_seconds":56818,"freshness":"FRESH","line1":"1 39210U 13037C   26145.24670438  .00000525  00000+0  92759-4 0  9998","line2":"2 39210  98.1039 148.3429 0005304 209.5545 150.5363 14.71468045690952","mean_motion":14.71468045,"eccentricity":0.0005304,"inclination_deg":98.1039,"raan_deg":148.3429,"arg_perigee_deg":209.5545,"mean_anomaly_deg":150.5363,"bstar":9.2759e-5,"rev_number":69095,"period_min":97.861452370174,"perigee_km":652.65430460807,"apogee_km":660.11652598622,"semimajor_km":7034.5224152971,"source":"CELESTRAK","updated_at":"2026-05-25T13:37:55.370376Z"}}}